Weather History for Mosby, MO

Change the Weather History Date:

Tuesday, January 29, 2013

  Actual Average (KMKC) Record (KMKC)
Temperature  
Mean Temperature 52 °F -  
Max Temperature 68 °F 38 °F 69 °F (2013)
Min Temperature 35 °F 23 °F 3 °F (2004)
Degree Days  
Heating Degree Days 14    
Growing Degree Days 2 (Base 50)    
Moisture  
Dew Point 46 °F    
Average Humidity 90    
Maximum Humidity 100    
Minimum Humidity 73    
Precipitation  
Precipitation 0.00 in - - ()
Sea Level Pressure  
Sea Level Pressure 29.58 in    
Wind  
Wind Speed 11 mph (NW)    
Max Wind Speed 18 mph    
Max Gust Speed 31 mph    
Visibility 6 miles    
Events Rain , Thunderstorm    
Averages and records for this station are not official NWS values.
T = Trace of Precipitation, MM = Missing Value Source: NWS Daily Summary

Daily Weather History Graph

Daily Weather History Graph

Search for Another Location

Airport:

Trip Planner

Search our weather history database for the weather conditions in past years. The results will help you decide how hot, cold, wet, or windy it might be!

Date:

Astronomy

Jan. 29, 2013 Rise Set
Actual Time 7:26 AM CST 5:34 PM CST
Civil Twilight 6:58 AM CST 6:03 PM CST
Nautical Twilight 6:26 AM CST 6:35 PM CST
Astronomical Twilight 5:54 AM CST 7:06 PM CST
Moon 8:30 PM CST (1/29) 8:25 AM CST (1/29)
Length of Visible Light 11h 04m
Length of Day
10h 07m
Waning Gibbous, 93% of the Moon is Illuminated
Jan 29
Waning Gibbous
Feb 3
Last Quarter
Feb 10
New
Feb 17
First Quarter
Feb 25
Full

Hourly Weather History & Observations

Time (CST) Temp. Windchill Dew Point Humidity Pressure Visibility Wind Dir Wind Speed Gust Speed Precip Events Conditions
12:15 AM 68.0 °F - 60.8 °F 78% 29.65 in 10.0 mi South 10.4 mph 16.1 mph N/A   Overcast
12:35 AM 68.0 °F - 60.8 °F 78% 29.65 in 10.0 mi SSW 13.8 mph 20.7 mph N/A   Overcast
12:55 AM 68.0 °F - 60.8 °F 78% 29.64 in 10.0 mi South 12.7 mph 20.7 mph N/A   Overcast
1:15 AM 68.0 °F - 60.8 °F 78% 29.62 in 10.0 mi South 17.3 mph 21.9 mph N/A   Overcast
1:35 AM 68.0 °F - 60.8 °F 78% 29.61 in 10.0 mi South 17.3 mph 25.3 mph N/A   Overcast
1:55 AM 68.0 °F - 59.0 °F 73% 29.60 in 10.0 mi South 18.4 mph 25.3 mph N/A   Scattered Clouds
2:15 AM 68.0 °F - 59.0 °F 73% 29.61 in 10.0 mi South 16.1 mph 26.5 mph N/A   Scattered Clouds
2:35 AM 68.0 °F - 60.8 °F 78% 29.61 in 10.0 mi South 11.5 mph 20.7 mph N/A   Mostly Cloudy
2:55 AM 68.0 °F - 60.8 °F 78% 29.61 in 10.0 mi South 10.4 mph 16.1 mph N/A   Mostly Cloudy
3:15 AM 68.0 °F - 60.8 °F 78% 29.61 in 10.0 mi South 11.5 mph 17.3 mph N/A   Overcast
3:35 AM 68.0 °F - 60.8 °F 78% 29.61 in 10.0 mi SSW 16.1 mph 24.2 mph N/A   Overcast
3:55 AM 68.0 °F - 60.8 °F 78% 29.61 in 10.0 mi SSW 17.3 mph 24.2 mph N/A   Overcast
4:15 AM 68.0 °F - 60.8 °F 78% 29.60 in 10.0 mi SSW 13.8 mph 25.3 mph N/A   Mostly Cloudy
4:35 AM 68.0 °F - 60.8 °F 78% 29.60 in 10.0 mi SSW 13.8 mph 26.5 mph N/A   Scattered Clouds
4:55 AM 68.0 °F - 60.8 °F 78% 29.60 in 10.0 mi SSW 13.8 mph 24.2 mph N/A   Scattered Clouds
5:15 AM 68.0 °F - 60.8 °F 78% 29.60 in 10.0 mi SSW 16.1 mph 23.0 mph N/A   Scattered Clouds
5:35 AM 68.0 °F - 59.0 °F 73% 29.60 in 10.0 mi SSW 12.7 mph 24.2 mph N/A   Scattered Clouds
5:55 AM 66.2 °F - 59.0 °F 78% 29.60 in 10.0 mi SW 10.4 mph 17.3 mph N/A   Mostly Cloudy
6:15 AM 66.2 °F - 59.0 °F 78% 29.59 in 10.0 mi SSW 11.5 mph 21.9 mph N/A   Overcast
6:35 AM 66.2 °F - 59.0 °F 78% 29.58 in 10.0 mi SSW 12.7 mph 16.1 mph N/A   Scattered Clouds
6:55 AM 64.4 °F - 59.0 °F 83% 29.58 in 10.0 mi SSW 9.2 mph 16.1 mph N/A   Mostly Cloudy
7:15 AM 64.4 °F - 59.0 °F 83% 29.57 in 10.0 mi SSW 12.7 mph - N/A   Scattered Clouds
7:35 AM 64.4 °F - 59.0 °F 83% 29.56 in 10.0 mi SSW 8.1 mph - N/A Thunderstorm Scattered Clouds
7:55 AM 53.6 °F - 50.0 °F 88% 29.60 in 10.0 mi NW 12.7 mph 31.1 mph N/A Thunderstorm Mostly Cloudy
8:15 AM 51.8 °F - 48.2 °F 88% 29.61 in 7.0 mi NW 11.5 mph - N/A   Overcast
8:35 AM 50.0 °F - 46.4 °F 87% 29.62 in 5.0 mi NNW 11.5 mph - N/A Rain , Thunderstorm Rain
8:55 AM 46.4 °F 41.9 °F 44.6 °F 93% 29.64 in 5.0 mi NW 9.2 mph 21.9 mph N/A Rain Light Rain
9:15 AM 44.6 °F 39.2 °F 42.8 °F 93% 29.67 in 4.0 mi WNW 10.4 mph - N/A Rain , Thunderstorm Thunderstorms and Rain
9:35 AM 44.6 °F 40.7 °F 42.8 °F 93% 29.67 in 3.0 mi NW 6.9 mph - N/A Rain Rain
9:55 AM 44.6 °F 39.7 °F 42.8 °F 93% 29.65 in 3.0 mi NW 9.2 mph - N/A Rain , Thunderstorm Rain
10:15 AM 44.6 °F 40.2 °F 42.8 °F 93% 29.64 in 3.0 mi NW 8.1 mph - N/A Rain Rain
10:35 AM 44.6 °F 41.4 °F 42.8 °F 93% 29.63 in 2.5 mi North 5.8 mph - N/A Rain , Thunderstorm Heavy Thunderstorms and Rain
10:55 AM 44.6 °F - 42.8 °F 93% 29.65 in 2.5 mi Calm Calm - N/A Rain , Thunderstorm Heavy Thunderstorms and Rain
11:15 AM 42.8 °F 40.1 °F 42.8 °F 100% 29.65 in 2.5 mi WNW 4.6 mph - N/A Rain Rain
11:55 AM 42.8 °F 41.1 °F 42.8 °F 100% 29.59 in 3.0 mi NNE 3.5 mph - N/A Rain Light Rain
12:15 PM 42.8 °F 39.3 °F 42.8 °F 100% 29.57 in 4.0 mi NNW 5.8 mph - N/A Rain Light Rain
12:35 PM 42.8 °F 38.6 °F 42.8 °F 100% 29.58 in 4.0 mi NW 6.9 mph - N/A Rain Rain
12:55 PM 42.8 °F 39.3 °F 42.8 °F 100% 29.54 in 4.0 mi East 5.8 mph - N/A Rain Rain
1:15 PM 42.8 °F - 42.8 °F 100% 29.52 in 4.0 mi Calm Calm - N/A Rain Light Rain
1:35 PM 44.6 °F 39.7 °F 42.8 °F 93% 29.53 in 5.0 mi WNW 9.2 mph - N/A   Light Drizzle
1:55 PM 42.8 °F 38.6 °F 42.8 °F 100% 29.55 in 7.0 mi NW 6.9 mph - N/A Rain Light Rain
2:15 PM 42.8 °F 37.5 °F 41.0 °F 93% 29.50 in 5.0 mi NNE 9.2 mph - N/A Rain Rain
2:35 PM 41.0 °F 35.2 °F 41.0 °F 100% 29.48 in 7.0 mi North 9.2 mph - N/A Rain Light Rain
2:55 PM 41.0 °F 34.7 °F 39.2 °F 93% 29.52 in 10.0 mi WNW 10.4 mph - N/A   Overcast
3:15 PM 39.2 °F 31.6 °F 37.4 °F 93% 29.51 in 10.0 mi NNW 12.7 mph - N/A   Overcast
3:35 PM 39.2 °F 32.5 °F 37.4 °F 93% 29.53 in 7.0 mi NW 10.4 mph - N/A   Overcast
3:55 PM 37.4 °F 29.8 °F 37.4 °F 100% 29.55 in 5.0 mi NW 11.5 mph - N/A   Overcast
4:15 PM 37.4 °F 29.8 °F 37.4 °F 100% 29.55 in 2.0 mi NNW 11.5 mph 17.3 mph N/A Rain Light Rain
4:35 PM 37.4 °F 28.2 °F 37.4 °F 100% 29.50 in 2.0 mi North 16.1 mph 19.6 mph N/A Rain Light Rain
4:55 PM 37.4 °F 30.3 °F 37.4 °F 100% 29.55 in 1.8 mi NW 10.4 mph 16.1 mph N/A Rain Rain
5:15 PM 37.4 °F 30.3 °F 35.6 °F 93% 29.55 in 1.2 mi NNW 10.4 mph - N/A   Light Drizzle
5:35 PM 37.4 °F 29.3 °F 35.6 °F 93% 29.53 in 1.5 mi North 12.7 mph - N/A   Overcast
5:55 PM 37.4 °F 32.8 °F 35.6 °F 93% 29.57 in 2.0 mi NNW 5.8 mph - N/A   Light Drizzle
6:15 PM 37.4 °F 29.8 °F 35.6 °F 93% 29.56 in 2.5 mi NNW 11.5 mph - N/A Rain Light Rain
6:35 PM 35.6 °F 26.6 °F 35.6 °F 100% 29.53 in 3.0 mi NNW 13.8 mph 17.3 mph N/A Rain Light Rain
6:55 PM 35.6 °F 28.0 °F 35.6 °F 100% 29.54 in 1.8 mi NNW 10.4 mph - N/A   Overcast
7:15 PM 35.6 °F 28.0 °F 35.6 °F 100% 29.54 in 2.0 mi North 10.4 mph - N/A Rain Light Rain
7:35 PM 37.4 °F 31.4 °F 35.6 °F 93% 29.56 in 3.0 mi North 8.1 mph - N/A Rain Rain
7:55 PM 37.4 °F 32.1 °F 35.6 °F 93% 29.56 in 4.0 mi NNW 6.9 mph - N/A Rain Rain
8:15 PM 37.4 °F 33.8 °F 35.6 °F 93% 29.57 in 5.0 mi NNW 4.6 mph - N/A Rain Light Rain
8:35 PM 35.6 °F 29.2 °F 35.6 °F 100% 29.56 in 4.0 mi NW 8.1 mph - N/A Rain Rain
8:55 PM 35.6 °F 29.2 °F 35.6 °F 100% 29.57 in 7.0 mi NNW 8.1 mph - N/A Rain Light Rain
9:15 PM 35.6 °F 27.5 °F 35.6 °F 100% 29.53 in 7.0 mi NNW 11.5 mph - N/A Rain Light Rain
9:35 PM 35.6 °F 27.5 °F 33.8 °F 93% 29.54 in 5.0 mi North 11.5 mph - N/A Rain Light Rain
9:55 PM 35.6 °F 28.0 °F 33.8 °F 93% 29.53 in 4.0 mi North 10.4 mph - N/A   Overcast
10:15 PM 35.6 °F 29.2 °F 33.8 °F 93% 29.54 in 7.0 mi North 8.1 mph - N/A Rain Light Rain
10:35 PM 35.6 °F 29.2 °F 33.8 °F 93% 29.53 in 3.0 mi NNW 8.1 mph - N/A Rain Rain
10:55 PM 35.6 °F 27.5 °F 33.8 °F 93% 29.52 in 4.0 mi North 11.5 mph - N/A Rain Light Rain
11:15 PM 35.6 °F 28.6 °F 33.8 °F 93% 29.52 in 10.0 mi NNE 9.2 mph - N/A Rain Light Rain
11:35 PM 35.6 °F 27.1 °F 33.8 °F 93% 29.48 in 10.0 mi NE 12.7 mph - N/A   Overcast